Location: Pallagorio
(39.3000°N, 16.9000°E)
Time: 20:43:24
(UTC+00:00)

CZ-4B R/B - Pass Details

Date: 24 January 2021
Orbit: 387 x 458 km, 97.6° (Epoch: 03 March)

Event Time Altitude Azimuth Distance (km) Brightness Sun altitude
Rises 16:46:46 0° 13° (NNE) 2,443 4.8 -8.6°
Reaches altitude 10° 16:48:50 10° 15° (NNE) 1,556 3.8 -9.0°
Maximum altitude 16:52:10 77° 101° (E) 445 1.2 -9.6°
Drops below altitude 10° 16:55:22 10° 189° (S) 1,501 4.4 -10.2°
Sets 16:57:20 0° 190° (S) 2,346 5.4 -10.6°
